Tracking 19634 objects as of 23-May-2019
HD Live streaming from Space Station
objects crossing your sky now

SAUDICOMSAT 1

Track SAUDICOMSAT 1 now!
10-day predictions
SAUDICOMSAT 1 is classified as:


NORAD ID: 28369
Int'l Code: 2004-025D
Perigee: 700.5 km
Apogee: 748.8 km
Inclination: 98.3 °
Period: 99.1 minutes
Semi major axis: 7095 km
RCS: 0.0481 m2 (small)
Launch date: June 29, 2004
Source: Saudi Arabia (SAUD)
Launch site: TYURATAM MISSILE AND SPACE COMPLEX (TTMTR)
aabbcc
Your satellite tracking list
Your tracking list is empty




NASA's NSSDC Master Catalog

Two Line Element Set (TLE):
1 28369U 04025D   19142.40510271 +.00000044 +00000-0 +21779-4 0  9994
2 28369 098.2888 091.8418 0034083 019.3284 340.9196 14.52492837788953
Source of the keplerian elements: AFSPC